TimeMST,TemperatureF,Dew PointF,Humidity,Sea Level PressureIn,VisibilityMPH,Wind Direction,Wind SpeedMPH,Gust SpeedMPH,PrecipitationIn,Events,Conditions,WindDirDegrees,DateUTC
12:53 AM,24.1,21.9,91,29.77,2.5,SSE,3.5,-,0.00,Snow,Light Snow,150,2012-12-27 07:53:00
1:06 AM,24.8,21.2,86,29.69,3.0,Calm,Calm,-,0.00,Snow,Light Snow,0,2012-12-27 08:06:00
1:27 AM,26.6,21.2,80,29.70,3.0,West,4.6,-,0.00,Snow,Light Snow,270,2012-12-27 08:27:00
1:50 AM,24.8,21.2,86,29.70,4.0,West,4.6,-,0.00,Snow,Light Snow,270,2012-12-27 08:50:00
1:53 AM,25.0,21.9,88,29.77,4.0,WSW,3.5,-,0.00,Snow,Light Snow,240,2012-12-27 08:53:00
2:53 AM,24.1,21.0,88,29.78,8.0,Variable,3.5,-,0.00,,Overcast,0,2012-12-27 09:53:00
3:49 AM,24.8,21.2,86,29.70,10.0,SW,4.6,-,0.00,,Overcast,230,2012-12-27 10:49:00
3:53 AM,24.1,21.0,88,29.78,10.0,WSW,4.6,-,0.00,,Overcast,240,2012-12-27 10:53:00
4:53 AM,25.0,21.9,88,29.77,10.0,Calm,Calm,-,0.00,,Overcast,0,2012-12-27 11:53:00
5:53 AM,24.1,21.0,88,29.79,10.0,SSW,5.8,-,N/A,,Overcast,200,2012-12-27 12:53:00
6:53 AM,24.1,19.9,84,29.80,10.0,SW,3.5,-,N/A,,Overcast,230,2012-12-27 13:53:00
8:53 AM,24.1,19.9,84,29.83,10.0,Variable,5.8,-,N/A,,Overcast,0,2012-12-27 15:53:00
9:53 AM,26.1,21.0,81,29.83,10.0,SW,9.2,-,N/A,,Overcast,230,2012-12-27 16:53:00
10:53 AM,28.0,19.9,72,29.83,10.0,WSW,13.8,-,N/A,,Overcast,240,2012-12-27 17:53:00
11:53 AM,28.0,21.9,78,29.81,10.0,SSE,4.6,-,N/A,,Overcast,150,2012-12-27 18:53:00
12:53 PM,28.9,21.0,72,29.78,10.0,West,12.7,-,N/A,,Overcast,270,2012-12-27 19:53:00
1:53 PM,28.9,19.9,69,29.78,10.0,West,10.4,-,N/A,,Overcast,280,2012-12-27 20:53:00
2:53 PM,28.9,19.9,69,29.80,10.0,NW,9.2,-,N/A,,Overcast,310,2012-12-27 21:53:00
3:32 PM,26.6,21.2,80,29.75,2.5,WNW,11.5,-,0.00,Snow,Light Snow,300,2012-12-27 22:32:00
3:35 PM,26.6,21.2,80,29.75,1.5,WNW,13.8,-,0.00,Snow,Light Snow,300,2012-12-27 22:35:00
3:39 PM,26.6,21.2,80,29.75,0.8,NW,11.5,-,0.00,Snow,Light Snow,310,2012-12-27 22:39:00
3:47 PM,26.6,21.2,80,29.76,1.2,NW,6.9,-,0.00,Snow,Light Snow,310,2012-12-27 22:47:00
3:51 PM,26.6,21.2,80,29.76,3.0,NW,6.9,-,0.00,Snow,Light Snow,310,2012-12-27 22:51:00
3:53 PM,27.0,21.9,81,29.83,4.0,WNW,5.8,-,0.00,Snow,Light Snow,300,2012-12-27 22:53:00
4:11 PM,26.6,21.2,80,29.76,10.0,West,11.5,-,0.00,,Overcast,280,2012-12-27 23:11:00
4:53 PM,26.1,21.0,81,29.86,10.0,West,9.2,-,0.00,,Overcast,270,2012-12-27 23:53:00
5:53 PM,25.0,19.9,81,29.89,10.0,WNW,6.9,-,N/A,,Overcast,290,2012-12-28 00:53:00
6:53 PM,24.1,18.0,77,29.93,10.0,West,5.8,-,N/A,,Overcast,280,2012-12-28 01:53:00
7:53 PM,24.1,14.0,65,29.95,10.0,NW,11.5,-,N/A,,Overcast,310,2012-12-28 02:53:00
8:53 PM,24.1,12.9,62,29.96,10.0,WNW,8.1,-,N/A,,Overcast,300,2012-12-28 03:53:00
9:53 PM,21.9,12.0,66,29.99,10.0,West,4.6,-,N/A,,Overcast,280,2012-12-28 04:53:00
10:53 PM,19.9,10.9,68,30.01,10.0,WNW,6.9,-,N/A,,Overcast,290,2012-12-28 05:53:00
11:53 PM,19.0,10.0,68,30.03,10.0,Calm,Calm,-,N/A,,Overcast,0,2012-12-28 06:53:00